Regional Weather Roundup
Issued by NWS Wilmington, NC

Home | Current Version | Previous Version | Text Only | Print | Product List | Glossary On
Versions: 1 2 3 4 5 6 7 8 9 10 11 12 13 14 15 16 17 18 19 20 21 22 23 24 25 26 27
000
ASUS42 KILM 161313
RWRILM
RWRILM
REGIONAL HOURLY WEATHER ROUNDUP
NATIONAL WEATHER SERVICE WILMINGTON NC
900 AM EDT WED AUG 16 2017

NOTE: "FAIR" INDICATES FEW OR NO CLOUDS BELOW 12,000 FEET WITH NO
SIGNIFICANT WEATHER AND/OR OBSTRUCTIONS TO VISIBILITY.

...............WFO WILMINGTON COUNTY WARNING AREA...............

......COASTAL NC AND SC COUNTIES......

CITY           SKY/WX    TMP DP  RH WIND       PRES   REMARKS
WILMINGTON     SUNNY     82  75  79 N7        29.98R
N MYRTLE BEACH SUNNY     83  76  79 NW6       29.99R HX  91
MYRTLE BEACH   SUNNY     82  75  78 VRB5      30.01R

......INLAND NC AND SC COUNTIES.......

CITY           SKY/WX    TMP DP  RH WIND       PRES   REMARKS
LUMBERTON      SUNNY     82  77  84 N5        30.01R HX  90
ELIZABETHTOWN  NOT AVBL
WHITEVILLE     SUNNY     81  77  89 CALM      30.00R
FLORENCE       SUNNY     83  76  79 N5        30.02R HX  91
DARLINGTON     SUNNY     81  76  84 N3        30.03R
KINGSTREE      FAIR      81  77  89 W3        30.02R
HARTSVILLE     FAIR      81  73  78 NE3       30.02S
BENNETTSVILLE  FAIR      81  75  83 CALM      30.01F
CONWAY         FAIR      81  75  83 CALM      30.01R HAZE
GEORGETOWN     FAIR      81  81 100 W6        30.01S HX  91
MARION         FAIR      79  73  83 N3        30.01R

....................REST OF NORTH CAROLINA......................

.........EASTERN NC.........

CITY           SKY/WX    TMP DP  RH WIND       PRES   REMARKS
CAPE HATTERAS  CLOUDY    83  79  88 VRB7      29.96R HX  94
JACKSONVILLE   MOSUNNY   77  75  93 VRB3      30.00R
MOREHEAD CITY  CLOUDY    78  78 100 N7        29.98R
KENANSVILLE    MOSUNNY   77  75  94 N5        30.00R
NEW BERN       CLOUDY    76  76 100 N5        30.00R FOG
ELIZABETH CITY CLOUDY    80  77  90 N9        29.98R

.........CENTRAL NC.........

CITY           SKY/WX    TMP DP  RH WIND       PRES   REMARKS
RALEIGH DURHAM MOSUNNY   79  75  87 NE5       30.03R
ROCKY MOUNT    CLOUDY    75  75 100 N9        30.02R
ROANOKE RAPIDS NOT AVBL
FAYETTEVILLE   SUNNY     82  77  84 NE9       30.01R HX  90
HOFFMAN        SUNNY     81  75  81 NE6       30.02S

.........WESTERN NC.........

CITY           SKY/WX    TMP DP  RH WIND       PRES   REMARKS
CHARLOTTE      MOSUNNY   80  75  84 N5        30.06R
GREENSBORO     MOSUNNY   77  74  90 N6        30.06R
HICKORY        NOT AVBL
BOONE          NOT AVBL
ASHEVILLE      NOT AVBL

.....................REST OF SOUTH CAROLINA.....................

.........EASTERN SC.........

CITY           SKY/WX    TMP DP  RH WIND       PRES   REMARKS
CHARLESTON     MOSUNNY   83  76  79 NW8       30.02R HX  91
BEAUFORT MCAS  MOSUNNY   85  78  80 NW8       30.03R HX  96
HILTON HEAD    SUNNY     84  77  79 SW5       30.04R HX  94

.........CENTRAL SC.........

CITY           SKY/WX    TMP DP  RH WIND       PRES   REMARKS
COLUMBIA       MOSUNNY   84  76  76 W6        30.02R HX  93
ORANGEBURG     SUNNY     82  74  76 NW8       30.03R
SUMTER SHAW    SUNNY     82  74  77 CALM      30.00S

.........WESTERN SC.........

CITY           SKY/WX    TMP DP  RH WIND       PRES   REMARKS
GREENVILLE     NOT AVBL
ROCK HILL      SUNNY     80  75  84 N7        30.06R
ANDERSON       SUNNY     78  72  81 CALM      30.07R
CLEMSON        NOT AVBL
GREENWOOD      PTSUNNY   78  74  87 NW5       30.07R


...................COASTAL AND OFFSHORE REPORTS..................

................LOCAL PIERS AND NC RESERVE................


STATION/POSITION TIME  SKY/WX   TEMP    WIND        PRES    VSBY
                                AIR SEA DIR/SP/G
                 (UTC)          (F)     (DEG/KT/KT) (MB)    (MI)
JOHNY MRCER PIER 1248            81 82  340/  6/  8 1014.5R
NC RESRV MASNBRO NOT AVBL
OCEAN CREST PIER NOT AVBL
SPRINGMAID  PIER 1248                               1015.3R


................COASTAL AND OFFSHORE BUOYS................


STATION/POSITION TIME  SKY/WX   TEMP    WIND        PRES    VSBY
                                AIR SEA DIR/SP/G
                 (UTC)          (F)     (DEG/KT/KT) (MB)    (MI)
DIMNDSHOAL 41025 1250            80 83   20/ 12/ 14 1014.4R
WVE H/P(F/S)=  3/ 9 SWL H/P/D(F/S/D)=  3/120/ 9

CAPE LOOKOUT     1300            79     360/ 10/ 12 1014.7R
ONSLOW BAY 41036 NOT AVBL
ONSLOW BAY 41064 1208            81 83   10/  8/ 12 1014.7R
ONSLOW BAY 41159 1243               83                N/A
WVE H/P(F/S)=  3/ 5

MASNBO INL 41110 1229               83                N/A
WVE H/P(F/S)=  2/ 8

WILM HARBR 41108 1230               84                N/A
WVE H/P(F/S)=  3/ 5

27SE WRITB 41037 1208            82 83  330/  8/ 10 1014.7R
FRYING PAN 41013 1300            82 83  310/ 10/ 12 1015.2
SUNST NRSH 41024 1208            80 84  340/  8/ 10 1015.1R
CAPRS NRSH 41029 1208            81 85  290/ 12/ 16 1015.8R
EDISTO     41004 1300            83 83  280/ 10/ 12 1016.0


..........OFFSHORE BUOYS BEYOND 100 NM OFFSHORE...........
.....IN A TRIANGLE---HAT TO BERMUDA TO BAHAMAS TO HAT.....


STATION/POSITION TIME  SKY/WX   TEMP    WIND        PRES    VSBY
                                AIR SEA DIR/SP/G
                 (UTC)          (F)     (DEG/KT/KT) (MB)    (MI)
150E HAT   41001 1300               82  250/  8/ 10 1014.9
W BERMUDA  41048 1300            81 83  290/ 17/ 29 1018.5
ATLANTIC S 41049 1250            84 85  120/  6/  8 1022.6R
WVE H/P(F/S)=  4/ 8 SWL H/P/D(F/S/D)=  3/110/ 8

E BAHAMAS  41046 1300            83 84   90/ 12/ 14 1020.2
NE BAHAMAS 41047 1300            84 84  180/  8/ 12 1020.8
120E CANVRL41010 1300            85 86  260/ 10/ 14 1018.2

END




USA.gov is the U.S. government's official web portal to all federal, state and local government web resources and services.